cover

Hatiras - Lost in Space (Original Mix)

Get it on iTunes StoreListen on Apple Music

Trackname / Key / BPM / Publish dateArtists, Remixers / Label
130 bpm, / , 2006-05-09, House,  1  12

Tracks in release Arrival

#Trackname / Key / BPM / Publish dateArtists, Remixers / Label
1 0 bpm, 7B / F major, 2006-05-09, House,  0  12
2 175 bpm, 8A / A minor, 2006-05-09, House,  0  12
3 120 bpm, 8B / C major, 2006-05-09, House,  0  12
4 125 bpm, 10B / D major, 2006-05-09, House,  0  12
5 132 bpm, 10A / B minor, 2006-05-09, House,  0  12
6 130 bpm, / , 2006-05-09, House,  1  12
7 131 bpm, 7A / D minor, 2006-05-09, House,  0  12
8 133 bpm, 10A / B minor, 2006-05-09, House,  0  12
9 132 bpm, 5B / Eb major, 2006-05-09, House,  0  12
10 128 bpm, 5B / Eb major, 2006-05-09, House,  0  12
11 96 bpm, 8A / A minor, 2006-05-09, House,  0  12
12 133 bpm, 11A / F# minor, 2006-05-09, House,  0  12

Recommendations

#Trackname / Key / BPM / Publish dateArtists, Remixers / Label
1 126 bpm, 8A / A minor, 2019-04-05, Tech House,  64  1   1
2 125 bpm, 8A / A minor, 2019-04-15, Tech House,  22  1   1
3 124 bpm, 6B / Bb major, 2019-04-12, House,  14  1   1
1
4 125 bpm, 7A / D minor, 2019-04-19, Techno,  11  1   1
5 124 bpm, 12A / Db minor, 2019-04-19, House,  11  1   1
6 124 bpm, 6A / G minor, 2019-03-15, House,  9  1   2
7 125 bpm, 8A / A minor, 2019-04-15, Bass House,  8  1   1
8 123 bpm, 11A / F# minor, 2019-05-10, Tech House,  8  1   73
9 125 bpm, 7B / F major, 2019-01-18, Deep House,  6  1   1
10 123 bpm, 2A / Eb minor, 2019-03-01, House,  6  1   4
11 124 bpm, 8A / A minor, 2019-04-19, House,  3  1   1
12 123 bpm, 11B / A major, 2019-04-05, House,  2  1   2
13 126 bpm, 6B / Bb major, 2019-05-03, House,  1  1   2
14 124 bpm, 7A / D minor, 2019-03-30, Funky / Groove / Jackin' House,  1  1   20
15 120 bpm, 8A / A minor, 2019-05-02, Indie Dance / Nu Disco,  1  1   2
16 124 bpm, 11B / A major, 2019-04-05, House,  1  1   1
17 122 bpm, 3A / Bb minor, 2019-04-12, House,  1  1   1
18 123 bpm, 6B / Bb major, 2019-03-25, Funky / Groove / Jackin' House,  1  1   60

Charts

ArtistTitleGenresPublish date
HatirasHatiras Top Tunes May 2019House, Techno, Tech House, Deep House, Indie Dance / Nu Disco, Funky / Groove / Jackin' House, Bass House 2019-05-02
×

Sign in

Sign in to access your personalized pages, follow artists and labels you love, and create playlists fromyour favorite tracks.

Please wait...